Location: Aldenham
(51.6667°N, 0.3500°W)
Time: 05:44:50
(UTC+00:00)

Okean 2 Rocket - Pass Details

Date: 18 November 2025
Orbit: 611 x 634 km, 82.5° (Epoch: 16 December)

Event Time Altitude Azimuth Distance (km) Brightness Sun altitude
Rises 17:12:33 0° 146° (SE) 2,886 6.3 -10.0°
Reaches altitude 10° 17:15:20 10° 128° (SE) 1,982 5.3 -10.4°
Maximum altitude 17:18:20 18° 85° (E) 1,508 4.4 -10.9°
Enters shadow 17:20:17 14° 53° (NE) 1,725 4.8 -11.1°
